Location: Hepcat Sky Observatory
(29.9800°N, 95.6500°W)
Time: 07:04:42
(UTC-05:00)

Cosmos 2366 rocket - Visible Passes

Search period start: 21 August 2014 00:00
Search period end: 31 August 2014 00:00
Orbit: 954 x 998 km, 82.9° (Epoch: 16 August)

Date Brightness Start Highest point End Pass type
(mag) Time Alt. Az. Time Alt. Az. Time Alt. Az.
21 Aug 5.5 20:21:39 10° NNW 20:27:21 41° W 20:33:04 10° SSW visible
22 Aug 6.7 20:48:25 10° NW 20:52:45 20° W 20:57:07 10° SW visible
25 Aug 6.6 20:19:46 10° NW 20:24:33 24° W 20:29:22 10° SW visible
26 Aug 7.4 06:16:22 10° E 06:18:05 11° E 06:19:47 10° ENE visible
26 Aug 7.3 20:48:10 10° WNW 20:49:51 11° W 20:51:32 10° W visible
29 Aug 7.2 20:18:45 10° NW 20:21:40 14° W 20:24:36 10° WSW visible
30 Aug 6.8 06:10:49 10° SE 06:15:10 21° E 06:19:31 10° NE visible
